• In Uzbekistan
  • List of Countries
  • For 7 days
  • Water Temperature
  • Satellite Maps
  • Weather Map
  • Weather Widgets
  • user-avatar
    Login

    Hourly Weather Mayrhofen

    Today, 26 March, Sunday

    Time Temperature Precipitation Wind Pressure Humidity
    00:00 0°C° 0 mm 1 mps 615 mmHg 94%
    01:00 0°C° 0 mm 1 mps 615 mmHg 95%
    02:00 0°C° 0 mm 1 mps 614 mmHg 95%
    03:00 -1°C° 0 mm 1 mps 614 mmHg 95%
    04:00 -1°C° 0 mm 1 mps 614 mmHg 95%
    05:00 -1°C° 0 mm 1 mps 614 mmHg 94%
    06:00 -1°C° 0 mm 1 mps 614 mmHg 94%
    07:00 -2°C° 0 mm 0 mps 614 mmHg 93%
    08:00 +1°C° 0 mm 1 mps 615 mmHg 90%
    09:00 +3°C° 0 mm 1 mps 616 mmHg 88%
    10:00 +5°C° 0 mm 1 mps 617 mmHg 85%
    11:00 +4°C° 0.1 mm 2 mps 617 mmHg 85%
    12:00 +4°C° 0.1 mm 2 mps 617 mmHg 85%
    13:00 +4°C° 0.1 mm 2 mps 617 mmHg 85%
    14:00 +4°C° 0.1 mm 2 mps 617 mmHg 85%
    15:00 +4°C° 0.1 mm 2 mps 617 mmHg 85%
    16:00 +3°C° 0.1 mm 2 mps 617 mmHg 85%
    17:00 +2°C° 0 mm 2 mps 617 mmHg 89%
    18:00 +1°C° 0 mm 1 mps 617 mmHg 92%
    19:00 0°C° 0 mm 1 mps 617 mmHg 96%
    20:00 -1°C° 0 mm 1 mps 617 mmHg 96%
    21:00 -2°C° 0 mm 1 mps 617 mmHg 96%
    22:00 -3°C° 0 mm 1 mps 617 mmHg 97%
    23:00 -3°C° 0 mm 1 mps 617 mmHg 95%

    Tomorrow, 27 March, Monday

    Time Temperature Precipitation Wind Pressure Humidity
    00:00 -4°C° 0 mm 1 mps 617 mmHg 94%
    01:00 -4°C° 0 mm 1 mps 618 mmHg 93%
    02:00 -4°C° 0 mm 1 mps 617 mmHg 91%
    03:00 -4°C° 0 mm 1 mps 617 mmHg 90%
    04:00 -4°C° 0 mm 1 mps 617 mmHg 89%
    05:00 -3°C° 0 mm 1 mps 618 mmHg 87%
    06:00 -2°C° 0 mm 1 mps 618 mmHg 84%
    07:00 -2°C° 0 mm 1 mps 618 mmHg 82%
    08:00 +1°C° 0 mm 1 mps 619 mmHg 76%
    09:00 +4°C° 0 mm 1 mps 620 mmHg 69%
    10:00 +7°C° 0 mm 1 mps 621 mmHg 63%
    11:00 +7°C° 0 mm 1 mps 621 mmHg 60%
    12:00 +8°C° 0 mm 1 mps 621 mmHg 58%
    13:00 +9°C° 0 mm 1 mps 621 mmHg 55%
    14:00 +9°C° 0 mm 1 mps 621 mmHg 58%
    15:00 +9°C° 0 mm 1 mps 621 mmHg 61%
    16:00 +8°C° 0 mm 1 mps 621 mmHg 64%
    17:00 +5°C° 0 mm 1 mps 619 mmHg 73%
    18:00 +2°C° 0 mm 1 mps 618 mmHg 83%
    19:00 -2°C° 0 mm 1 mps 617 mmHg 92%
    20:00 -2°C° 0 mm 1 mps 617 mmHg 92%
    21:00 -1°C° 0 mm 1 mps 618 mmHg 92%
    22:00 -1°C° 0 mm 1 mps 618 mmHg 92%
    23:00 -1°C° 0 mm 1 mps 618 mmHg 93%

    Day after tomorrow, 28 March, Tuesday

    Time Temperature Precipitation Wind Pressure Humidity
    00:00 -2°C° 0 mm 1 mps 618 mmHg 93%
    01:00 -2°C° 0 mm 1 mps 618 mmHg 93%
    02:00 -2°C° 0 mm 1 mps 618 mmHg 93%
    03:00 -2°C° 0 mm 1 mps 618 mmHg 93%
    04:00 -3°C° 0 mm 1 mps 618 mmHg 93%
    05:00 -1°C° 0 mm 1 mps 618 mmHg 91%
    06:00 0°C° 0 mm 1 mps 619 mmHg 89%
    07:00 +1°C° 0 mm 1 mps 620 mmHg 87%
    08:00 +3°C° 0 mm 1 mps 620 mmHg 80%
    09:00 +5°C° 0 mm 1 mps 621 mmHg 74%
    10:00 +8°C° 0 mm 1 mps 622 mmHg 67%
    11:00 +8°C° 0 mm 1 mps 622 mmHg 65%
    12:00 +9°C° 0 mm 1 mps 622 mmHg 63%
    13:00 +10°C° 0 mm 1 mps 622 mmHg 61%
    14:00 +9°C° 0 mm 1 mps 622 mmHg 63%
    15:00 +9°C° 0 mm 1 mps 622 mmHg 66%
    16:00 +9°C° 0 mm 1 mps 621 mmHg 69%
    17:00 +6°C° 0 mm 1 mps 620 mmHg 77%
    18:00 +4°C° 0 mm 1 mps 620 mmHg 85%
    19:00 +2°C° 0 mm 1 mps 619 mmHg 93%
    20:00 +1°C° 0 mm 1 mps 619 mmHg 94%
    21:00 +1°C° 0 mm 1 mps 619 mmHg 95%
    22:00 -1°C° 0 mm 0 mps 619 mmHg 96%
    23:00 0°C° 0 mm 1 mps 619 mmHg 96%

    29 March, Wednesday

    Time Temperature Precipitation Wind Pressure Humidity
    00:00 0°C° 0 mm 1 mps 619 mmHg 96%
    01:00 +1°C° 0 mm 1 mps 619 mmHg 96%
    02:00 +1°C° 0 mm 1 mps 620 mmHg 96%
    03:00 +1°C° 0 mm 1 mps 620 mmHg 96%
    04:00 +1°C° 0 mm 1 mps 620 mmHg 96%
    05:00 +2°C° 0 mm 1 mps 620 mmHg 95%
    06:00 +2°C° 0 mm 1 mps 621 mmHg 94%
    07:00 +3°C° 0 mm 1 mps 621 mmHg 93%
    08:00 +4°C° 0 mm 1 mps 622 mmHg 86%
    09:00 +6°C° 0 mm 1 mps 622 mmHg 78%
    10:00 +8°C° 0 mm 1 mps 623 mmHg 70%
    11:00 +9°C° 0 mm 1 mps 623 mmHg 67%
    12:00 +10°C° 0 mm 1 mps 623 mmHg 63%
    13:00 +10°C° 0 mm 1 mps 623 mmHg 59%
    14:00 +10°C° 0 mm 1 mps 622 mmHg 61%
    15:00 +10°C° 0 mm 1 mps 622 mmHg 63%
    16:00 +10°C° 0 mm 1 mps 622 mmHg 65%
    17:00 +7°C° 0 mm 1 mps 621 mmHg 75%
    18:00 +5°C° 0 mm 1 mps 620 mmHg 84%
    19:00 +3°C° 0 mm 1 mps 620 mmHg 93%
    20:00 +3°C° 0 mm 1 mps 620 mmHg 93%
    21:00 +2°C° 0 mm 1 mps 620 mmHg 94%
    22:00 +2°C° 0 mm 1 mps 621 mmHg 94%
    23:00 +2°C° 0 mm 1 mps 621 mmHg 94%

    30 March, Thursday

    Time Temperature Precipitation Wind Pressure Humidity
    00:00 +2°C° 0 mm 1 mps 621 mmHg 95%
    01:00 +2°C° 0 mm 1 mps 621 mmHg 95%
    02:00 +1°C° 0 mm 1 mps 621 mmHg 95%
    03:00 +1°C° 0 mm 1 mps 620 mmHg 95%
    04:00 +1°C° 0 mm 1 mps 620 mmHg 95%
    05:00 +1°C° 0 mm 1 mps 620 mmHg 92%
    06:00 +2°C° 0 mm 1 mps 621 mmHg 89%
    07:00 +2°C° 0 mm 1 mps 621 mmHg 87%
    08:00 +5°C° 0 mm 1 mps 622 mmHg 78%
    09:00 +7°C° 0 mm 1 mps 622 mmHg 69%
    10:00 +9°C° 0 mm 0 mps 623 mmHg 60%
    11:00 +10°C° 0 mm 0 mps 623 mmHg 58%
    12:00 +11°C° 0 mm 1 mps 623 mmHg 55%
    13:00 +12°C° 0 mm 1 mps 623 mmHg 53%
    14:00 +12°C° 0 mm 1 mps 623 mmHg 55%
    15:00 +12°C° 0 mm 1 mps 623 mmHg 57%
    16:00 +11°C° 0 mm 1 mps 622 mmHg 59%
    17:00 +8°C° 0 mm 1 mps 621 mmHg 69%
    18:00 +6°C° 0 mm 1 mps 620 mmHg 79%
    19:00 +3°C° 0 mm 1 mps 619 mmHg 89%
    20:00 +3°C° 0 mm 1 mps 619 mmHg 90%
    21:00 +3°C° 0 mm 1 mps 619 mmHg 90%
    22:00 +2°C° 0 mm 2 mps 619 mmHg 91%
    23:00 +2°C° 0 mm 2 mps 619 mmHg 91%

    31 March, Friday

    Time Temperature Precipitation Wind Pressure Humidity
    00:00 +2°C° 0 mm 2 mps 619 mmHg 92%
    01:00 +2°C° 0 mm 2 mps 619 mmHg 92%
    02:00 +2°C° 0 mm 2 mps 619 mmHg 93%
    03:00 +2°C° 0 mm 2 mps 618 mmHg 93%
    04:00 +2°C° 0 mm 2 mps 618 mmHg 94%
    05:00 +2°C° 0 mm 2 mps 618 mmHg 93%
    06:00 +2°C° 0 mm 2 mps 618 mmHg 92%
    07:00 +3°C° 0 mm 2 mps 618 mmHg 91%
    08:00 +4°C° 0 mm 2 mps 619 mmHg 84%
    09:00 +6°C° 0 mm 2 mps 619 mmHg 77%
    10:00 +8°C° 0 mm 2 mps 619 mmHg 70%
    11:00 +8°C° 0 mm 2 mps 619 mmHg 67%
    12:00 +9°C° 0 mm 2 mps 619 mmHg 65%
    13:00 +10°C° 0 mm 2 mps 619 mmHg 62%
    14:00 +9°C° 0.1 mm 2 mps 618 mmHg 65%
    15:00 +9°C° 0.1 mm 2 mps 617 mmHg 68%
    16:00 +8°C° 0.1 mm 2 mps 617 mmHg 71%
    17:00 +7°C° 0.2 mm 2 mps 616 mmHg 77%
    18:00 +5°C° 0.2 mm 2 mps 615 mmHg 84%
    19:00 +4°C° 0.2 mm 2 mps 615 mmHg 90%
    20:00 +3°C° 0.1 mm 2 mps 615 mmHg 91%
    21:00 +3°C° 0.1 mm 2 mps 614 mmHg 91%
    22:00 +3°C° 0.1 mm 2 mps 614 mmHg 92%
    23:00 +2°C° 0.2 mm 2 mps 614 mmHg 92%
    Show more